sat.trackr.live / text

‹ back to catalog

QIANFAN-118

NORAD 68645 · 2026-075K

PAYLOAD ACTIVE UNKNOWN

§ Identity

Operator
Country
PRC
Launch date
2026-04-07
Launch site
WSC
Launch vehicle
Mass (kg)
RCS (m²)

External: N2YO · Heavens-Above · Gunter

§ Orbital elements

Epoch: 2026-09-19T22:02:00.378816Z

Period
106.59 min
Inclination
88.9866°
Eccentricity
0.0002313
Mean motion
13.51024753 rev/d
Perigee alt
1,066.8 km
Apogee alt
1,070.2 km
Semi-major
7,446.6 km
B*
4.3784e-5
RAAN
311.3414°
Arg perigee
98.7492°
Mean anomaly
261.3922°
Rev number
2,259

§ Raw data

QIANFAN-1181 68645U 26075K   26262.91805994  .00000040  00000+0  43784-4 0  99952 68645  88.9866 311.3414 0002313  98.7492 261.3922 13.51024753 22595

JSON: /api/v1/satellites/68645 · /tle

For live sub-satellite position, see the globe view (requires WebGL).

§ Visibility from observer

Set your observer location to see the next 7 days of passes ≥ 10°. The values pass through the URL so the page stays shareable.

No JS? Fill the form by hand. The geolocation button needs JavaScript.